EHI
25 36 29 10 2 0 0 1 5 9 13 20 24 20 11 4 1 0 0 0 0 0 0 0 0 0 0 0 0 0 0 0 0 0 0 0 0 0 0 0 0 0 0
31 39 29 10 2 0 0 1 5 11 17 25 32 29 18 8 2 1 0 0 0 0 0 0 0 0 0 0 0 0 0 0 0 0 0 0 0 0 0 0 0 0 0
32 36 25 8 2 0 0 1 5 11 18 28 37 36 23 9 3 1 0 0 0 0 0 0 0 0 0 0 0 0 0 0 0 0 0 0 0 0 0 0 0 0 0
21 26 21 9 3 0 0 0 3 7 11 19 26 26 17 7 1 0 0 0 0 0 0 0 0 0 0 0 0 0 0 0 0 0 0 0 0 0 0 0 0 0 0
12 19 20 11 3 0 0 0 1 2 4 6 9 9 6 3 1 0 0 0 0 0 0 0 0 0 0 0 0 0 0 0 0 0 0 0 0 0 0 0 0 0 0
8 14 17 10 2 0 0 0 0 1 1 1 1 1 1 1 0 0 0 0 0 0 0 0 0 0 0 0 0 0 0 0 0 0 0 0 0 0 0 0 0 0 0
3 8 12 8 2 1 0 0 0 0 0 0 0 0 0 0 0 0 0 0 0 0 0 0 0 0 0 0 0 0 0 0 0 0 0 0 0 0 0 0 0 0 0
0 5 9 6 2 1 0 1 1 1 1 0 0 0 0 0 0 0 0 0 0 0 0 0 0 0 0 0 0 0 0 0 0 0 0 0 0 0 0 0 0 0 0
0 2 5 4 3 4 5 7 7 7 6 5 4 2 1 1 0 0 0 0 0 0 0 0 0 0 0 0 0 0 0 0 0 0 0 2 3 2 0 0 0 0 0
1 2 2 3 6 10 14 19 21 21 18 13 10 7 5 2 0 0 0 1 1 0 0 0 0 0 0 0 0 0 0 0 0 0 1 6 9 4 0 0 0 0 0
7 6 5 8 13 15 20 28 33 34 31 22 15 14 10 5 1 1 5 8 5 1 0 0 0 0 0 0 0 0 0 0 0 0 6 15 15 5 0 0 0 0 0
15 12 11 15 19 19 22 31 37 41 42 35 26 24 24 18 11 10 15 18 9 2 0 0 0 0 1 2 3 2 0 0 0 0 12 27 19 4 0 0 0 0 0
18 15 16 20 21 22 25 31 37 43 48 48 43 43 46 46 39 33 32 28 19 11 6 6 6 4 3 5 6 4 2 1 1 2 18 32 20 3 0 0 0 0 1
19 18 18 21 24 26 29 31 34 41 45 48 54 58 63 66 63 59 55 46 34 26 18 15 16 11 6 6 5 3 2 2 2 6 22 33 20 3 0 0 1 1 1
26 22 18 20 24 28 31 32 32 36 37 39 48 57 61 65 67 67 68 61 46 33 25 22 19 14 11 9 5 2 1 2 3 7 20 27 17 4 1 1 1 1 1
29 23 17 14 16 21 24 25 26 29 29 28 34 44 48 51 57 58 58 55 44 33 32 27 19 14 13 12 6 1 1 3 3 5 12 17 13 5 1 2 4 4 4
23 21 15 8 6 8 10 12 15 17 17 17 23 29 32 35 42 44 42 38 36 35 38 34 23 14 11 8 6 4 5 5 4 4 8 13 11 4 1 4 8 11 11
15 15 11 6 3 2 3 5 7 7 7 10 16 20 20 20 25 31 31 27 27 30 33 30 22 13 8 6 6 7 7 6 3 4 7 10 9 5 4 6 9 12 13
8 8 8 6 3 2 2 4 5 5 5 7 11 14 13 10 11 18 22 20 19 21 20 17 14 11 8 6 5 5 5 3 1 2 3 4 5 5 6 7 7 7 7
4 4 5 4 3 1 2 3 3 3 3 3 7 9 8 5 4 8 13 15 15 13 11 10 9 8 5 3 1 1 1 0 0 0 0 0 1 2 3 4 4 3 2
2 2 2 2 1 1 2 2 1 1 1 1 2 3 3 2 3 6 10 14 14 10 8 7 6 5 2 1 0 0 0 0 0 0 1 0 0 0 0 1 1 2 1
1 1 1 1 0 0 1 1 0 0 0 0 0 0 0 0 2 5 8 11 13 11 7 5 4 2 1 0 0 1 0 0 0 0 0 0 0 0 0 0 1 1 1
0 0 0 0 0 0 0 0 0 0 0 0 0 0 0 0 1 3 5 7 9 9 6 3 1 1 0 0 0 0 0 0 0 0 0 0 0 0 0 0 0 0 0
0 0 0 0 0 0 0 0 0 0 0 0 0 0 0 0 1 1 2 3 4 4 3 2 1 0 0 0 0 0 0 0 0 0 0 0 0 0 0 0 0 0 0
0 0 0 0 0 0 0 0 0 0 0 0 0 0 0 0 0 0 0 1 1 0 0 0 0 0 0 0 0 0 0 0 0 0 0 0 0 0 0 0 0 0 0
0 0 0 0 0 0 0 0 0 0 0 0 0 0 0 0 0 0 0 0 0 0 0 0 0 0 0 0 0 0 0 0 0 0 0 0 0 0 0 0 0 0 0
Wind_Speed
14 19 21 17 16 14 13 12 11 12 13 14 14 14 14 14 13 13 12 11 10 9 8 8 8 8 8 8 9 10 10 10 10 10 10 10 10 10 10 9 8 11 12
16 20 21 18 16 15 13 12 12 12 12 13 14 14 13 13 12 12 12 11 10 9 8 8 8 8 8 8 8 9 10 9 9 10 10 10 10 9 9 6 2 11 11
18 20 20 17 16 15 14 12 12 12 12 12 13 13 12 12 11 11 11 11 10 9 8 8 8 8 7 7 8 8 9 9 9 9 10 9 10 9 8 7 9 12 11
18 18 17 18 16 15 13 12 12 11 11 11 12 12 12 11 11 10 10 10 10 9 8 8 8 8 7 7 7 8 8 8 8 9 9 6 9 10 8 8 9 10 10
16 16 17 18 16 14 13 12 12 11 11 11 11 11 11 10 10 10 10 10 9 9 8 8 8 8 7 7 7 7 7 7 7 10 5 5 6 11 8 8 8 9 9
16 15 18 17 15 14 13 12 11 11 10 10 10 10 10 10 10 10 10 10 9 9 8 8 8 8 8 8 7 7 7 7 9 9 6 6 7 11 9 9 9 8 8
15 14 18 16 14 13 12 12 11 11 10 10 10 10 10 10 10 11 10 10 9 9 8 8 8 8 9 9 9 9 8 9 10 5 6 6 6 10 9 10 10 9 9
14 13 16 15 14 13 12 12 11 11 11 10 10 10 10 9 10 10 10 10 10 9 9 9 9 9 9 10 10 10 10 11 11 8 7 7 9 8 9 10 11 11 11
12 12 13 15 14 13 12 12 12 12 12 11 11 11 10 10 10 10 10 10 10 10 10 10 10 10 10 11 11 11 11 12 13 8 9 6 12 10 10 11 13 13 13
10 10 11 11 12 13 13 14 13 13 13 13 13 13 12 12 12 12 11 11 11 11 11 11 12 12 12 12 12 12 12 11 14 12 8 7 13 11 11 12 14 15 15
9 9 10 11 10 11 11 12 13 13 13 13 13 15 13 12 14 13 16 13 13 13 13 14 14 14 13 14 15 14 13 11 13 10 8 8 12 11 12 12 13 15 16
12 11 9 9 9 9 7 8 9 10 11 12 11 12 12 11 9 10 9 13 14 15 15 16 15 14 14 11 14 16 10 13 12 9 7 10 10 12 13 13 13 14 16
12 10 10 8 6 6 5 5 4 5 6 9 11 11 9 9 8 9 7 9 13 15 14 13 14 12 12 10 8 10 11 11 8 7 7 13 13 14 15 15 14 14 15
8 8 6 4 3 4 4 4 5 5 5 7 8 11 9 7 8 8 7 8 8 7 9 9 8 11 12 12 12 11 11 9 8 7 6 12 14 15 16 16 15 14 14
3 2 1 1 2 2 3 5 6 6 7 8 8 8 10 9 9 9 7 7 9 8 9 9 10 10 11 11 11 12 13 13 11 10 6 12 14 15 17 17 16 16 14
4 3 2 2 3 4 4 5 6 7 7 9 9 11 12 10 9 8 9 8 9 9 9 9 10 10 9 9 11 13 13 13 12 12 11 10 15 16 17 17 17 17 16
5 5 4 3 4 5 7 7 6 7 8 9 9 10 11 11 10 9 9 9 9 9 9 9 10 9 9 10 12 13 11 12 12 12 12 9 10 15 17 16 16 16 16
7 7 6 6 6 6 6 7 6 7 8 8 8 8 10 11 10 8 8 8 8 7 7 8 8 7 8 8 8 9 9 9 12 12 11 10 9 9 14 18 16 15 16
7 6 6 6 7 7 7 6 6 6 6 6 6 6 7 8 8 7 7 7 7 6 7 8 7 6 8 8 8 8 8 9 10 11 11 12 11 10 9 12 16 15 17
6 6 6 6 8 8 7 6 5 6 5 5 5 5 6 4 5 6 6 6 6 5 6 6 6 6 6 6 8 7 7 8 8 9 10 10 10 12 12 10 10 13 17
6 6 6 7 8 7 7 8 8 7 6 6 6 7 6 5 5 5 4 4 5 6 6 6 6 7 7 6 6 7 8 9 9 8 8 9 10 10 10 10 9 8 9
5 5 6 7 8 8 7 6 6 7 6 5 5 6 7 7 7 5 4 3 4 4 5 5 6 6 6 5 6 7 7 8 8 9 8 8 9 8 10 11 10 9 8
5 6 6 7 7 8 8 7 7 6 6 6 6 6 7 7 7 6 7 5 5 6 5 6 7 8 7 6 7 7 6 6 4 6 7 7 7 7 8 7 9 9 9
6 6 7 7 8 8 8 8 10 8 8 7 6 6 7 7 7 6 5 6 5 6 6 7 8 7 9 8 6 7 8 6 5 4 7 7 8 7 7 6 7 7 8
8 9 9 9 9 9 9 9 9 9 8 7 7 7 7 5 5 5 5 4 4 5 6 8 7 8 8 9 7 6 7 6 8 7 5 6 7 7 7 7 6 6 6
10 10 10 10 10 10 10 10 10 11 10 11 10 9 7 5 4 4 4 3 4 4 6 7 7 9 9 9 8 7 7 7 8 8 7 6 6 5 5 4 5 5 4
Wind_Direction
154 147 148 159 161 159 156 154 150 151 156 158 157 157 158 158 156 154 154 153 152 150 144 136 131 130 129 125 123 124 126 128 129 128 125 123 122 122 124 132 155 120 115
148 145 151 159 161 161 158 155 151 150 152 157 158 157 158 158 158 159 160 160 160 159 153 145 138 134 132 130 129 132 135 138 140 138 138 134 129 128 131 138 85 111 129
147 145 154 159 161 162 159 156 152 152 152 155 157 158 158 159 161 163 165 166 168 168 161 154 147 141 137 136 136 139 144 149 153 154 171 158 133 135 135 125 106 125 135
149 148 156 155 161 162 160 158 156 155 156 158 159 161 163 164 166 169 173 174 176 175 167 164 158 150 147 146 147 150 156 162 166 180 193 148 142 136 146 139 134 140 144
147 149 145 157 161 162 162 160 160 160 161 164 167 168 170 173 175 179 181 182 184 182 174 171 169 162 159 159 160 162 166 171 174 217 167 146 135 140 158 156 152 152 151
149 155 145 161 162 163 164 164 164 165 168 172 175 178 180 183 186 189 188 189 189 185 181 179 177 173 171 171 173 177 180 182 201 203 161 176 147 151 169 172 171 169 165
154 155 146 162 163 165 167 168 170 171 175 180 183 187 190 193 196 197 197 197 196 190 187 189 190 187 183 184 188 190 195 201 231 205 179 190 141 148 180 183 185 184 182
155 154 142 159 166 169 171 173 176 179 183 188 192 196 200 202 204 206 205 206 206 201 198 199 202 200 197 197 199 200 204 220 224 219 211 198 137 159 196 196 195 196 193
157 154 152 166 171 175 179 181 184 187 190 194 199 203 208 213 216 218 216 215 215 213 211 210 213 213 210 209 209 210 212 225 252 224 220 212 146 178 209 214 206 203 202
159 160 160 176 174 182 184 188 193 196 198 200 204 207 211 216 220 224 227 218 223 224 222 221 221 222 220 218 217 217 219 222 240 236 221 189 152 187 213 221 216 209 206
163 168 173 177 181 192 196 183 196 203 207 210 210 211 215 222 218 211 221 216 222 229 230 228 226 226 225 222 222 220 219 232 229 240 231 153 161 196 219 226 221 215 210
169 177 180 189 187 199 205 196 208 214 208 217 224 214 216 226 236 233 202 208 224 232 234 233 233 232 230 228 216 213 225 230 243 233 219 153 178 211 225 230 227 219 214
171 179 186 193 199 215 217 229 232 238 233 229 233 232 234 235 233 234 224 207 218 226 232 225 224 230 229 228 227 214 224 231 231 235 215 171 195 217 227 229 230 226 219
171 179 185 186 208 234 257 258 254 252 250 248 240 237 236 235 237 235 231 233 224 222 226 234 228 230 235 234 230 229 230 232 232 230 215 185 201 218 227 229 229 226 223
135 137 145 245 260 281 279 278 274 272 267 262 260 250 246 242 239 236 233 234 237 235 228 229 235 236 236 237 235 231 232 234 240 238 223 197 208 219 226 227 224 224 222
55 48 24 333 320 306 288 283 279 275 267 269 263 255 250 249 246 244 238 233 235 238 241 239 239 239 241 241 240 236 235 232 233 235 237 216 211 219 224 225 224 222 220
46 36 15 340 332 313 301 297 291 288 285 276 271 266 258 253 249 245 246 239 237 236 235 239 242 243 243 241 240 241 237 235 232 231 233 234 221 214 220 222 221 220 219
33 29 15 358 347 328 317 310 306 302 301 292 286 275 262 253 251 249 248 247 244 239 236 235 238 239 243 247 246 244 240 235 236 234 232 229 233 229 212 213 217 218 217
41 32 24 11 355 338 326 316 311 311 308 305 301 289 272 261 261 260 252 251 246 236 235 241 232 238 243 244 244 237 238 236 235 234 231 231 228 232 233 200 207 218 221
56 46 29 20 10 350 347 336 327 329 326 327 324 324 314 287 275 272 262 261 257 244 237 237 249 239 253 250 253 248 235 232 231 233 232 231 226 225 228 226 210 211 216
60 48 33 20 16 1 1 350 344 342 339 346 347 355 348 339 330 288 278 276 266 255 252 249 246 238 239 241 248 248 238 233 234 235 236 241 234 228 230 227 231 231 205
47 31 23 18 13 4 5 344 338 333 327 347 353 0 358 353 347 332 314 290 279 279 267 264 252 263 253 229 245 252 243 222 213 226 224 223 235 229 226 223 226 225 241
19 8 4 358 352 355 345 337 341 333 330 347 352 358 356 354 353 354 338 330 317 298 280 265 251 246 255 240 234 252 258 248 204 187 214 218 215 223 227 222 222 221 224
350 345 344 340 337 333 326 335 337 333 336 338 334 346 345 354 351 349 345 339 325 303 290 273 252 245 247 248 225 235 261 304 283 207 190 199 203 215 231 229 229 220 227
330 330 330 330 326 322 317 310 306 313 319 319 323 325 324 334 336 337 338 337 327 310 301 286 281 255 243 248 245 224 222 226 244 271 230 188 194 206 212 222 237 239 233
320 323 325 326 323 319 311 305 298 300 301 305 306 305 304 305 301 308 311 315 311 308 303 295 282 263 254 251 255 248 229 222 221 229 239 224 214 203 205 221 230 226 229